weather.gov     
National Weather Service

Regional Weather Roundup
NWS Homepage
This page is being discontinued on March 12, 2014.
The same data is available at this site. Please update your bookmarks.
Thank you, and we apologize for the inconvenience.
Please send an email to SR-SRH.Webmaster@noaa.gov with any concerns.


Current Version
Previous Version:    01  02  03  04  05  06  07  08  09  10  11  12  13  14  15  16  17  18  19  20  21  22  23  24  25  26  27  28  29  30  
   31  32  33  34  35  36  37  38  39  40  41  42  43  44  45  46  47  48  49  50  51  52  53  
[Printable]
439
ASUS43 KTOP 241408
RWRKS

WEATHER ROUNDUP FOR KANSAS
NATIONAL WEATHER SERVICE GOODLAND KS
800 AM CST MON NOV 24 2014

NOTE:  "FAIR" INDICATES FEW OR NO CLOUDS BELOW 12,000 FEET WITH NO
SIGNIFICANT WEATHER AND/OR OBSTRUCTIONS TO VISIBILITY.

KSZ001>006-013>018-027>032-041>047-241500-
NORTHWEST KANSAS

CITY           SKY/WX    TMP DP  RH WIND       PRES   REMARKS
GOODLAND       CLEAR     26  11  52 W16       29.86R WCI  14
HAYS           MOCLDY    34  14  44 W13       29.83R WCI  25
HILL CITY      PTCLDY    29  15  56 W10       29.83R WCI  20
RUSSELL        MOCLDY    36  19  50 NW18      29.80R WCI  26
$$

KSZ061>065-074>080-084>089-241500-
SOUTHWEST KANSAS

CITY           SKY/WX    TMP DP  RH WIND       PRES   REMARKS
DODGE CITY     CLEAR     29  17  61 W15       29.89R WCI  18
ELKHART          N/A    N/A N/A N/A MISG        N/A
GARDEN CITY    CLEAR     28  19  69 W13       29.91R WCI  17
GREAT BEND     PTCLDY    36  16  44 W17       29.84R WCI  25
LIBERAL        CLEAR     27  18  69 W10       29.97R WCI  17
PRATT          CLEAR     34  19  55 NW18G26   29.85R WCI  23
$$

KSZ066>073-081>083-090>101-241500-
SOUTHEAST KANSAS

CITY           SKY/WX    TMP DP  RH WIND       PRES   REMARKS
CHANUTE        CLEAR     36  27  69 W12       29.77R WCI  28
COFFEYVILLE    CLEAR     37  27  67 W12       29.81R WCI  29
HUTCHINSON     PTCLDY    35  20  54 NW14      29.80R WCI  26
MEDICINE LODGE   N/A     34  20  56 W8        29.87R
NEWTON         PTCLDY    34  19  55 W13       29.80R WCI  25
PARSONS        CLEAR     36  28  73 W10       29.80R WCI  28
WICHITA INTL   PTCLDY    34  23  64 W12       29.82R WCI  25
WICHITA JABRA  CLEAR     35  22  58 W13       29.81R WCI  26
WICHITA MCCONL CLEAR     35  22  58 W9        29.82R
WINFIELD       CLEAR     34  25  69 W10       29.85R WCI  26
$$

KSZ007>012-019>026-033>040-048>060-102>105-241500-
NORTHEAST KANSAS

CITY           SKY/WX    TMP DP  RH WIND       PRES   REMARKS
CONCORDIA      CLEAR     32  23  69 W14       29.75R WCI  22
EMPORIA        CLEAR     33  24  69 W10G18    29.74R WCI  25
LAWRENCE       CLEAR     32  23  69 W12       29.70R WCI  23
MANHATTAN      PTCLDY    34  26  72 W8        29.74R
MARYSVILLE     CLOUDY    32  21  64 NW20G26   29.71R WCI  20
OLATHE IND     CLEAR     32  23  69 W14       29.70R WCI  22
OLATHE EXE     CLEAR     32  23  69 W10G17    29.68R WCI  24
SALINA         PTCLDY    37  22  54 W15       29.79R WCI  28
TOPEKA BILLARD CLEAR     34  23  64 W9        29.71R
TOPEKA FORBES  CLEAR     33  24  69 NW14      29.70R WCI  23
$$




U.S. Dept. of Commerce
NOAA National Weather Service
1325 East West Highway
Silver Spring, MD 20910
E-mail: w-nws.webmaster@noaa.gov
Page last modified: May 16, 2007
NATIONAL WEATHER SERVICE: for Safety, for Work, for Fun - FOR LIFE